Time,TemperatureF,DewpointF,PressureIn,WindDirection,WindDirectionDegrees,WindSpeedMPH,WindSpeedGustMPH,Humidity,HourlyPrecipIn,Conditions,Clouds,dailyrainin,SoftwareType,DateUTC
2013-08-09 00:01:00,71.0,66.6,29.91,NE,39,0.0,0.0,86,0.00,,,0.00,Wunderground v.1.15,2013-08-09 04:01:00,
2013-08-09 00:02:00,71.0,66.6,29.91,NE,39,0.0,0.0,86,0.00,,,0.00,Wunderground v.1.15,2013-08-09 04:02:00,
2013-08-09 00:03:00,71.0,66.6,29.91,NE,39,0.0,2.0,86,0.00,,,0.00,Wunderground v.1.15,2013-08-09 04:03:00,
2013-08-09 00:05:00,70.9,66.5,29.90,NE,39,0.0,2.0,86,0.00,,,0.00,Wunderground v.1.15,2013-08-09 04:05:00,
2013-08-09 00:07:00,71.0,66.6,29.90,NE,39,0.0,2.0,86,0.00,,,0.00,Wunderground v.1.15,2013-08-09 04:07:00,
2013-08-09 00:12:00,70.9,66.5,29.91,NE,36,0.0,0.0,86,0.00,,,0.00,Wunderground v.1.15,2013-08-09 04:12:00,
2013-08-09 00:18:00,70.9,66.5,29.91,NE,36,0.0,0.0,86,0.00,,,0.00,Wunderground v.1.15,2013-08-09 04:18:00,
2013-08-09 00:23:00,71.0,66.6,29.91,NE,36,0.0,3.0,86,0.00,,,0.00,Wunderground v.1.15,2013-08-09 04:23:00,
2013-08-09 00:29:00,70.9,66.5,29.91,NE,36,0.0,3.0,86,0.00,,,0.00,Wunderground v.1.15,2013-08-09 04:29:00,
2013-08-09 00:34:00,70.9,66.5,29.90,NE,36,0.0,0.0,86,0.00,,,0.00,Wunderground v.1.15,2013-08-09 04:34:00,
2013-08-09 00:40:00,70.8,66.4,29.90,NE,36,0.0,0.0,86,0.00,,,0.00,Wunderground v.1.15,2013-08-09 04:40:00,
2013-08-09 00:46:00,70.6,66.2,29.91,NE,36,0.0,1.0,86,0.00,,,0.00,Wunderground v.1.15,2013-08-09 04:46:00,
2013-08-09 00:52:00,70.6,66.2,29.90,NE,36,0.0,3.0,86,0.00,,,0.00,Wunderground v.1.15,2013-08-09 04:52:00,
2013-08-09 00:58:00,70.5,66.1,29.91,NE,36,1.0,3.0,86,0.00,,,0.00,Wunderground v.1.15,2013-08-09 04:58:00,
2013-08-09 01:03:00,70.5,66.1,29.90,NE,36,1.0,2.0,86,0.00,,,0.00,Wunderground v.1.15,2013-08-09 05:03:00,
2013-08-09 01:09:00,70.5,65.8,29.90,NE,36,0.0,2.0,85,0.00,,,0.00,Wunderground v.1.15,2013-08-09 05:09:00,
2013-08-09 01:14:00,70.5,65.8,29.90,NE,35,1.0,2.0,85,0.00,,,0.00,Wunderground v.1.15,2013-08-09 05:14:00,
2013-08-09 01:20:00,70.4,65.7,29.90,ENE,74,1.0,2.0,85,0.00,,,0.00,Wunderground v.1.15,2013-08-09 05:20:00,
2013-08-09 01:25:00,70.2,65.8,29.90,ENE,74,1.0,2.0,86,0.00,,,0.00,Wunderground v.1.15,2013-08-09 05:25:00,
2013-08-09 01:31:00,70.2,65.5,29.90,ENE,74,0.0,0.0,85,0.00,,,0.00,Wunderground v.1.15,2013-08-09 05:31:00,
2013-08-09 01:36:00,70.2,65.5,29.90,ENE,74,0.0,1.0,85,0.00,,,0.00,Wunderground v.1.15,2013-08-09 05:36:00,
2013-08-09 01:41:00,70.2,65.5,29.90,ENE,74,0.0,0.0,85,0.00,,,0.00,Wunderground v.1.15,2013-08-09 05:41:00,
2013-08-09 01:47:00,70.2,65.5,29.89,ENE,74,0.0,0.0,85,0.00,,,0.00,Wunderground v.1.15,2013-08-09 05:47:00,
2013-08-09 01:53:00,70.1,65.4,29.89,ENE,74,0.0,0.0,85,0.00,,,0.00,Wunderground v.1.15,2013-08-09 05:53:00,
2013-08-09 01:59:00,70.1,65.4,29.89,ENE,74,0.0,0.0,85,0.00,,,0.00,Wunderground v.1.15,2013-08-09 05:59:00,
2013-08-09 02:04:00,70.1,65.4,29.88,ENE,74,0.0,0.0,85,0.00,,,0.00,Wunderground v.1.15,2013-08-09 06:04:00,
2013-08-09 02:10:00,69.9,65.2,29.89,ENE,74,0.0,0.0,85,0.00,,,0.00,Wunderground v.1.15,2013-08-09 06:10:00,
2013-08-09 02:15:00,69.8,65.1,29.88,ENE,74,0.0,0.0,85,0.00,,,0.00,Wunderground v.1.15,2013-08-09 06:15:00,
2013-08-09 02:21:00,69.8,65.1,29.88,ENE,74,0.0,0.0,85,0.00,,,0.00,Wunderground v.1.15,2013-08-09 06:21:00,
2013-08-09 02:26:00,69.8,65.1,29.88,ENE,74,0.0,0.0,85,0.00,,,0.00,Wunderground v.1.15,2013-08-09 06:26:00,
2013-08-09 02:32:00,69.8,65.1,29.88,ENE,74,0.0,1.0,85,0.00,,,0.00,Wunderground v.1.15,2013-08-09 06:32:00,
2013-08-09 02:38:00,69.6,64.9,29.88,ENE,74,0.0,1.0,85,0.00,,,0.00,Wunderground v.1.15,2013-08-09 06:38:00,
2013-08-09 02:43:00,69.6,64.9,29.88,ENE,74,0.0,0.0,85,0.00,,,0.00,Wunderground v.1.15,2013-08-09 06:43:00,
2013-08-09 02:49:00,69.5,64.8,29.88,ENE,74,0.0,0.0,85,0.00,,,0.00,Wunderground v.1.15,2013-08-09 06:49:00,
2013-08-09 02:54:00,69.5,64.5,29.88,ENE,74,0.0,0.0,84,0.00,,,0.00,Wunderground v.1.15,2013-08-09 06:54:00,
2013-08-09 03:00:00,69.5,64.5,29.89,ENE,74,0.0,0.0,84,0.00,,,0.00,Wunderground v.1.15,2013-08-09 07:00:00,
2013-08-09 03:05:00,69.4,64.7,29.88,ENE,74,0.0,0.0,85,0.00,,,0.00,Wunderground v.1.15,2013-08-09 07:05:00,
2013-08-09 03:11:00,69.4,64.4,29.88,ENE,74,0.0,0.0,84,0.00,,,0.00,Wunderground v.1.15,2013-08-09 07:11:00,
2013-08-09 03:16:00,69.3,64.6,29.88,ENE,74,0.0,0.0,85,0.00,,,0.00,Wunderground v.1.15,2013-08-09 07:16:00,
2013-08-09 03:22:00,69.1,64.1,29.89,ENE,74,0.0,0.0,84,0.00,,,0.00,Wunderground v.1.15,2013-08-09 07:22:00,
2013-08-09 03:27:00,69.0,64.0,29.88,ENE,74,0.0,0.0,84,0.00,,,0.00,Wunderground v.1.15,2013-08-09 07:27:00,
2013-08-09 03:33:00,68.9,64.2,29.88,ENE,74,0.0,0.0,85,0.00,,,0.00,Wunderground v.1.15,2013-08-09 07:33:00,
2013-08-09 03:38:00,68.8,64.1,29.88,ENE,74,0.0,0.0,85,0.00,,,0.00,Wunderground v.1.15,2013-08-09 07:38:00,
2013-08-09 03:44:00,68.8,64.1,29.88,ENE,74,0.0,0.0,85,0.00,,,0.00,Wunderground v.1.15,2013-08-09 07:44:00,
2013-08-09 03:50:00,68.7,64.0,29.87,ENE,74,0.0,0.0,85,0.00,,,0.00,Wunderground v.1.15,2013-08-09 07:50:00,
2013-08-09 03:56:00,68.6,63.9,29.87,ENE,74,0.0,0.0,85,0.00,,,0.00,Wunderground v.1.15,2013-08-09 07:56:00,
2013-08-09 04:02:00,68.6,63.9,29.86,ENE,74,0.0,0.0,85,0.00,,,0.00,Wunderground v.1.15,2013-08-09 08:02:00,
2013-08-09 04:07:00,68.6,63.9,29.86,ENE,74,0.0,0.0,85,0.00,,,0.00,Wunderground v.1.15,2013-08-09 08:07:00,
2013-08-09 04:13:00,68.5,63.8,29.87,ENE,74,0.0,0.0,85,0.00,,,0.00,Wunderground v.1.15,2013-08-09 08:13:00,
2013-08-09 04:19:00,68.5,63.8,29.87,ENE,74,0.0,0.0,85,0.00,,,0.00,Wunderground v.1.15,2013-08-09 08:19:00,
2013-08-09 04:25:00,68.5,63.8,29.87,ENE,74,0.0,0.0,85,0.00,,,0.00,Wunderground v.1.15,2013-08-09 08:25:00,
2013-08-09 04:30:00,68.4,63.7,29.86,ENE,74,0.0,0.0,85,0.00,,,0.00,Wunderground v.1.15,2013-08-09 08:30:00,
2013-08-09 04:36:00,68.3,63.6,29.86,ENE,74,0.0,0.0,85,0.00,,,0.00,Wunderground v.1.15,2013-08-09 08:36:00,
2013-08-09 04:42:00,68.3,63.6,29.86,ENE,74,0.0,0.0,85,0.00,,,0.00,Wunderground v.1.15,2013-08-09 08:42:00,
2013-08-09 04:48:00,68.2,63.5,29.85,ENE,74,0.0,3.0,85,0.00,,,0.00,Wunderground v.1.15,2013-08-09 08:48:00,
2013-08-09 04:53:00,68.1,63.4,29.85,ENE,76,0.0,4.0,85,0.00,,,0.00,Wunderground v.1.15,2013-08-09 08:53:00,
2013-08-09 04:59:00,68.1,63.4,29.85,ENE,76,0.0,4.0,85,0.00,,,0.00,Wunderground v.1.15,2013-08-09 08:59:00,
2013-08-09 05:04:00,68.1,63.4,29.85,ENE,76,0.0,0.0,85,0.00,,,0.00,Wunderground v.1.15,2013-08-09 09:04:00,
2013-08-09 05:10:00,68.1,63.4,29.86,ENE,76,0.0,0.0,85,0.00,,,0.00,Wunderground v.1.15,2013-08-09 09:10:00,
2013-08-09 05:16:00,68.1,63.4,29.86,ENE,76,0.0,0.0,85,0.00,,,0.00,Wunderground v.1.15,2013-08-09 09:16:00,
2013-08-09 05:21:00,68.2,63.2,29.86,ENE,76,0.0,0.0,84,0.00,,,0.00,Wunderground v.1.15,2013-08-09 09:21:00,
2013-08-09 05:26:00,68.3,63.3,29.86,ENE,76,0.0,0.0,84,0.00,,,0.00,Wunderground v.1.15,2013-08-09 09:26:00,
2013-08-09 05:32:00,68.3,63.3,29.86,ENE,76,0.0,0.0,84,0.00,,,0.00,Wunderground v.1.15,2013-08-09 09:32:00,
2013-08-09 05:37:00,68.4,63.7,29.86,ENE,76,0.0,2.0,85,0.00,,,0.00,Wunderground v.1.15,2013-08-09 09:37:00,
2013-08-09 05:42:00,68.4,63.7,29.86,ENE,76,1.0,2.0,85,0.00,,,0.00,Wunderground v.1.15,2013-08-09 09:42:00,
2013-08-09 05:48:00,68.5,63.8,29.87,ENE,76,0.0,2.0,85,0.00,,,0.00,Wunderground v.1.15,2013-08-09 09:48:00,
2013-08-09 06:20:00,68.7,64.0,29.85,ENE,76,0.0,0.0,85,0.00,,,0.00,Wunderground v.1.15,2013-08-09 10:20:00,
2013-08-09 06:25:00,68.8,64.1,29.85,ENE,76,0.0,0.0,85,0.00,,,0.00,Wunderground v.1.15,2013-08-09 10:25:00,
2013-08-09 06:31:00,68.7,64.0,29.85,ENE,76,0.0,0.0,85,0.00,,,0.00,Wunderground v.1.15,2013-08-09 10:31:00,
2013-08-09 06:36:00,68.7,64.0,29.85,ENE,76,0.0,0.0,85,0.00,,,0.00,Wunderground v.1.15,2013-08-09 10:36:00,
2013-08-09 06:42:00,68.8,64.1,29.85,ENE,76,1.0,3.0,85,0.00,,,0.00,Wunderground v.1.15,2013-08-09 10:42:00,
2013-08-09 06:48:00,68.9,64.2,29.85,ENE,76,1.0,3.0,85,0.00,,,0.00,Wunderground v.1.15,2013-08-09 10:48:00,
2013-08-09 06:54:00,69.0,64.3,29.85,ENE,76,1.0,2.0,85,0.00,,,0.00,Wunderground v.1.15,2013-08-09 10:54:00,
2013-08-09 07:00:00,69.0,64.3,29.84,ENE,76,0.0,0.0,85,0.00,,,0.00,Wunderground v.1.15,2013-08-09 11:00:00,
2013-08-09 07:05:00,69.1,64.4,29.84,ENE,76,0.0,1.0,85,0.00,,,0.00,Wunderground v.1.15,2013-08-09 11:05:00,
2013-08-09 07:11:00,69.1,64.4,29.84,ENE,76,0.0,0.0,85,0.00,,,0.00,Wunderground v.1.15,2013-08-09 11:11:00,
2013-08-09 07:16:00,69.2,64.5,29.84,ENE,76,0.0,1.0,85,0.00,,,0.00,Wunderground v.1.15,2013-08-09 11:16:00,
2013-08-09 07:21:00,69.3,64.9,29.84,ENE,77,1.0,2.0,86,0.00,,,0.00,Wunderground v.1.15,2013-08-09 11:21:00,
2013-08-09 07:27:00,69.3,64.9,29.84,ENE,77,1.0,3.0,86,0.00,,,0.00,Wunderground v.1.15,2013-08-09 11:27:00,
2013-08-09 07:33:00,69.4,65.0,29.84,ENE,77,0.0,1.0,86,0.00,,,0.00,Wunderground v.1.15,2013-08-09 11:33:00,
2013-08-09 07:38:00,69.5,65.1,29.84,ENE,77,0.0,2.0,86,0.00,,,0.00,Wunderground v.1.15,2013-08-09 11:38:00,
2013-08-09 07:44:00,69.6,65.2,29.84,ENE,77,0.0,1.0,86,0.00,,,0.00,Wunderground v.1.15,2013-08-09 11:44:00,
2013-08-09 07:49:00,69.7,65.3,29.84,ENE,77,0.0,2.0,86,0.00,,,0.00,Wunderground v.1.15,2013-08-09 11:49:00,
2013-08-09 07:55:00,69.8,65.4,29.84,ENE,78,0.0,2.0,86,0.00,,,0.00,Wunderground v.1.15,2013-08-09 11:55:00,
2013-08-09 08:01:00,69.8,65.4,29.84,East,94,1.0,2.0,86,0.00,,,0.00,Wunderground v.1.15,2013-08-09 12:01:00,
2013-08-09 08:06:00,69.8,65.4,29.84,ESE,112,2.0,2.0,86,0.00,,,0.00,Wunderground v.1.15,2013-08-09 12:06:00,
2013-08-09 08:12:00,69.8,65.4,29.84,ESE,115,1.0,2.0,86,0.00,,,0.00,Wunderground v.1.15,2013-08-09 12:12:00,
2013-08-09 08:18:00,69.9,65.5,29.84,ESE,115,0.0,2.0,86,0.00,,,0.00,Wunderground v.1.15,2013-08-09 12:18:00,
2013-08-09 08:23:00,69.9,65.9,29.85,ESE,115,0.0,1.0,87,0.00,,,0.00,Wunderground v.1.15,2013-08-09 12:23:00,
2013-08-09 08:29:00,69.9,65.9,29.84,ESE,115,0.0,2.0,87,0.00,,,0.00,Wunderground v.1.15,2013-08-09 12:29:00,
2013-08-09 08:34:00,70.1,66.0,29.84,ESE,117,0.0,2.0,87,0.00,,,0.00,Wunderground v.1.15,2013-08-09 12:34:00,
2013-08-09 08:40:00,70.2,66.1,29.84,ESE,119,1.0,1.0,87,0.00,,,0.00,Wunderground v.1.15,2013-08-09 12:40:00,
2013-08-09 08:46:00,70.3,66.2,29.84,ESE,119,1.0,2.0,87,0.00,,,0.00,Wunderground v.1.15,2013-08-09 12:46:00,
2013-08-09 08:51:00,70.3,66.2,29.85,ESE,119,0.0,1.0,87,0.00,,,0.00,Wunderground v.1.15,2013-08-09 12:51:00,
2013-08-09 08:57:00,70.3,66.6,29.84,ESE,119,0.0,2.0,88,0.00,,,0.00,Wunderground v.1.15,2013-08-09 12:57:00,
2013-08-09 09:02:00,70.3,66.6,29.84,ESE,119,0.0,0.0,88,0.00,,,0.00,Wunderground v.1.15,2013-08-09 13:02:00,
2013-08-09 09:08:00,70.3,66.6,29.83,ESE,119,0.0,1.0,88,0.00,,,0.00,Wunderground v.1.15,2013-08-09 13:08:00,
2013-08-09 09:13:00,70.3,66.6,29.83,ESE,119,0.0,0.0,88,0.00,,,0.00,Wunderground v.1.15,2013-08-09 13:13:00,
2013-08-09 09:19:00,70.4,66.7,29.83,ESE,117,0.0,1.0,88,0.00,,,0.00,Wunderground v.1.15,2013-08-09 13:19:00,
2013-08-09 09:25:00,70.5,66.8,29.83,ESE,115,0.0,1.0,88,0.00,,,0.00,Wunderground v.1.15,2013-08-09 13:25:00,
2013-08-09 09:31:00,70.7,67.0,29.83,ESE,110,0.0,1.0,88,0.00,,,0.00,Wunderground v.1.15,2013-08-09 13:31:00,
2013-08-09 09:37:00,70.9,67.2,29.83,ESE,103,0.0,2.0,88,0.00,,,0.00,Wunderground v.1.15,2013-08-09 13:37:00,
2013-08-09 09:43:00,71.1,67.4,29.83,East,101,1.0,1.0,88,0.00,,,0.00,Wunderground v.1.15,2013-08-09 13:43:00,
2013-08-09 09:48:00,71.2,67.5,29.83,East,89,0.0,3.0,88,0.00,,,0.00,Wunderground v.1.15,2013-08-09 13:48:00,
2013-08-09 09:54:00,71.5,67.8,29.82,ENE,60,1.0,5.0,88,0.00,,,0.00,Wunderground v.1.15,2013-08-09 13:54:00,
2013-08-09 10:00:00,71.6,67.9,29.82,ENE,60,1.0,1.0,88,0.00,,,0.00,Wunderground v.1.15,2013-08-09 14:00:00,
2013-08-09 10:05:00,71.7,68.3,29.83,ENE,57,1.0,3.0,89,0.00,,,0.00,Wunderground v.1.15,2013-08-09 14:05:00,
2013-08-09 10:11:00,71.9,68.5,29.83,NE,49,2.0,4.0,89,0.00,,,0.00,Wunderground v.1.15,2013-08-09 14:11:00,
2013-08-09 10:17:00,71.9,68.5,29.83,NE,47,2.0,4.0,89,0.00,,,0.00,Wunderground v.1.15,2013-08-09 14:17:00,
2013-08-09 10:22:00,72.0,68.6,29.83,NE,49,2.0,3.0,89,0.00,,,0.00,Wunderground v.1.15,2013-08-09 14:22:00,
2013-08-09 10:28:00,72.1,68.7,29.83,NE,48,1.0,3.0,89,0.00,,,0.00,Wunderground v.1.15,2013-08-09 14:28:00,
2013-08-09 10:34:00,72.3,68.9,29.83,NE,49,1.0,2.0,89,0.00,,,0.00,Wunderground v.1.15,2013-08-09 14:34:00,
2013-08-09 10:40:00,72.5,69.1,29.83,ENE,59,0.0,0.0,89,0.00,,,0.00,Wunderground v.1.15,2013-08-09 14:40:00,
2013-08-09 10:45:00,72.4,69.0,29.83,East,82,1.0,2.0,89,0.00,,,0.00,Wunderground v.1.15,2013-08-09 14:45:00,
2013-08-09 10:51:00,72.4,69.0,29.83,ENE,62,1.0,4.0,89,0.00,,,0.00,Wunderground v.1.15,2013-08-09 14:51:00,
2013-08-09 10:57:00,72.4,69.0,29.83,ENE,62,1.0,4.0,89,0.00,,,0.00,Wunderground v.1.15,2013-08-09 14:57:00,
2013-08-09 11:03:00,72.5,69.1,29.83,ENE,64,0.0,1.0,89,0.00,,,0.00,Wunderground v.1.15,2013-08-09 15:03:00,
2013-08-09 11:09:00,72.8,69.4,29.82,ENE,75,1.0,1.0,89,0.00,,,0.00,Wunderground v.1.15,2013-08-09 15:09:00,
2013-08-09 11:14:00,72.9,69.5,29.82,ENE,75,0.0,1.0,89,0.00,,,0.00,Wunderground v.1.15,2013-08-09 15:14:00,
2013-08-09 11:19:00,73.0,69.6,29.82,ENE,75,0.0,1.0,89,0.00,,,0.00,Wunderground v.1.15,2013-08-09 15:19:00,
2013-08-09 11:25:00,73.0,69.6,29.81,East,80,0.0,1.0,89,0.00,,,0.00,Wunderground v.1.15,2013-08-09 15:25:00,
2013-08-09 11:31:00,73.1,69.7,29.81,East,101,1.0,1.0,89,0.00,,,0.00,Wunderground v.1.15,2013-08-09 15:31:00,
2013-08-09 11:37:00,73.1,69.3,29.81,ESE,117,1.0,4.0,88,0.00,,,0.00,Wunderground v.1.15,2013-08-09 15:37:00,
2013-08-09 11:42:00,73.3,69.9,29.81,SE,129,1.0,4.0,89,0.00,,,0.00,Wunderground v.1.15,2013-08-09 15:42:00,
2013-08-09 11:48:00,73.6,70.2,29.81,SE,134,1.0,4.0,89,0.00,,,0.00,Wunderground v.1.15,2013-08-09 15:48:00,
2013-08-09 11:53:00,73.8,70.4,29.81,East,101,1.0,2.0,89,0.00,,,0.00,Wunderground v.1.15,2013-08-09 15:53:00,
2013-08-09 11:58:00,74.5,71.0,29.80,East,101,1.0,2.0,89,0.00,,,0.00,Wunderground v.1.15,2013-08-09 15:58:00,
2013-08-09 12:04:00,74.9,71.1,29.80,SE,130,1.0,2.0,88,0.00,,,0.00,Wunderground v.1.15,2013-08-09 16:04:00,
2013-08-09 12:10:00,74.6,70.5,29.80,SE,143,2.0,5.0,87,0.00,,,0.00,Wunderground v.1.15,2013-08-09 16:10:00,
2013-08-09 12:16:00,74.2,70.4,29.81,South,184,3.0,5.0,88,0.00,,,0.00,Wunderground v.1.15,2013-08-09 16:16:00,
2013-08-09 12:21:00,73.9,70.1,29.81,South,184,2.0,3.0,88,0.00,,,0.00,Wunderground v.1.15,2013-08-09 16:21:00,
2013-08-09 12:27:00,73.8,70.0,29.81,South,184,1.0,3.0,88,0.00,,,0.00,Wunderground v.1.15,2013-08-09 16:27:00,
2013-08-09 12:33:00,73.8,70.0,29.81,South,184,0.0,0.0,88,0.00,,,0.00,Wunderground v.1.15,2013-08-09 16:33:00,
2013-08-09 12:38:00,73.9,70.1,29.81,South,184,0.0,0.0,88,0.00,,,0.00,Wunderground v.1.15,2013-08-09 16:38:00,
2013-08-09 12:43:00,74.1,70.3,29.81,South,184,0.0,0.0,88,0.00,,,0.00,Wunderground v.1.15,2013-08-09 16:43:00,
2013-08-09 12:49:00,74.5,70.7,29.81,South,184,0.0,0.0,88,0.00,,,0.00,Wunderground v.1.15,2013-08-09 16:49:00,
2013-08-09 12:54:00,74.5,70.4,29.81,South,184,0.0,0.0,87,0.00,,,0.00,Wunderground v.1.15,2013-08-09 16:54:00,
2013-08-09 13:00:00,74.4,70.6,29.81,South,184,0.0,1.0,88,0.00,,,0.00,Wunderground v.1.15,2013-08-09 17:00:00,
2013-08-09 13:05:00,74.3,70.5,29.82,South,184,0.0,1.0,88,0.00,,,0.00,Wunderground v.1.15,2013-08-09 17:05:00,
2013-08-09 13:11:00,74.3,70.5,29.81,South,184,0.0,1.0,88,0.00,,,0.00,Wunderground v.1.15,2013-08-09 17:11:00,
2013-08-09 13:16:00,74.2,70.4,29.81,South,184,0.0,1.0,88,0.00,,,0.00,Wunderground v.1.15,2013-08-09 17:16:00,
2013-08-09 13:22:00,74.1,70.6,29.81,South,182,0.0,1.0,89,0.00,,,0.00,Wunderground v.1.15,2013-08-09 17:22:00,
2013-08-09 13:28:00,74.0,70.6,29.81,South,182,0.0,1.0,89,0.00,,,0.00,Wunderground v.1.15,2013-08-09 17:28:00,
2013-08-09 13:33:00,74.1,70.6,29.81,South,182,0.0,0.0,89,0.00,,,0.00,Wunderground v.1.15,2013-08-09 17:33:00,
2013-08-09 13:39:00,74.1,70.6,29.80,South,182,0.0,1.0,89,0.00,,,0.00,Wunderground v.1.15,2013-08-09 17:39:00,
2013-08-09 13:45:00,74.3,70.8,29.80,South,182,0.0,1.0,89,0.00,,,0.00,Wunderground v.1.15,2013-08-09 17:45:00,
2013-08-09 13:50:00,74.4,70.9,29.80,South,182,0.0,0.0,89,0.00,,,0.00,Wunderground v.1.15,2013-08-09 17:50:00,
2013-08-09 13:55:00,74.5,70.7,29.80,South,182,0.0,0.0,88,0.00,,,0.00,Wunderground v.1.15,2013-08-09 17:55:00,
2013-08-09 14:01:00,74.5,70.7,29.81,South,182,0.0,0.0,88,0.00,,,0.00,Wunderground v.1.15,2013-08-09 18:01:00,
2013-08-09 14:06:00,74.5,70.7,29.80,South,182,0.0,0.0,88,0.00,,,0.00,Wunderground v.1.15,2013-08-09 18:06:00,
2013-08-09 14:11:00,74.8,71.0,29.80,South,182,0.0,1.0,88,0.00,,,0.00,Wunderground v.1.15,2013-08-09 18:11:00,
2013-08-09 14:17:00,74.9,71.4,29.81,SSW,194,0.0,1.0,89,0.00,,,0.00,Wunderground v.1.15,2013-08-09 18:17:00,
2013-08-09 14:22:00,74.8,71.3,29.80,SSW,194,0.0,0.0,89,0.00,,,0.00,Wunderground v.1.15,2013-08-09 18:22:00,
2013-08-09 14:27:00,74.7,70.9,29.81,SSW,205,0.0,1.0,88,0.00,,,0.00,Wunderground v.1.15,2013-08-09 18:27:00,
2013-08-09 14:33:00,74.7,71.2,29.81,SSW,205,0.0,0.0,89,0.00,,,0.00,Wunderground v.1.15,2013-08-09 18:33:00,
2013-08-09 14:39:00,74.6,71.1,29.80,SSW,205,0.0,2.0,89,0.00,,,0.00,Wunderground v.1.15,2013-08-09 18:39:00,
2013-08-09 14:44:00,74.6,71.1,29.80,SSW,205,0.0,0.0,89,0.00,,,0.00,Wunderground v.1.15,2013-08-09 18:44:00,
2013-08-09 14:49:00,74.8,71.3,29.80,SSW,205,0.0,1.0,89,0.00,,,0.00,Wunderground v.1.15,2013-08-09 18:49:00,
2013-08-09 14:54:00,74.8,71.3,29.80,SSW,207,0.0,3.0,89,0.00,,,0.00,Wunderground v.1.15,2013-08-09 18:54:00,
2013-08-09 14:59:00,75.2,71.7,29.80,SSW,207,1.0,3.0,89,0.00,,,0.00,Wunderground v.1.15,2013-08-09 18:59:00,
2013-08-09 15:05:00,75.4,71.9,29.79,SSW,207,1.0,3.0,89,0.00,,,0.00,Wunderground v.1.15,2013-08-09 19:05:00,
2013-08-09 15:11:00,75.1,71.3,29.79,West,261,1.0,1.0,88,0.00,,,0.00,Wunderground v.1.15,2013-08-09 19:11:00,
2013-08-09 15:16:00,75.4,71.9,29.79,West,262,1.0,3.0,89,0.00,,,0.00,Wunderground v.1.15,2013-08-09 19:16:00,
2013-08-09 15:21:00,75.5,71.7,29.79,West,264,1.0,3.0,88,0.00,,,0.00,Wunderground v.1.15,2013-08-09 19:21:00,
2013-08-09 15:27:00,75.9,72.1,29.79,West,267,1.0,3.0,88,0.00,,,0.00,Wunderground v.1.15,2013-08-09 19:27:00,
2013-08-09 15:32:00,75.7,71.9,29.79,West,272,1.0,3.0,88,0.00,,,0.00,Wunderground v.1.15,2013-08-09 19:32:00,
2013-08-09 15:37:00,75.4,71.6,29.80,West,271,2.0,3.0,88,0.00,,,0.00,Wunderground v.1.15,2013-08-09 19:37:00,
2013-08-09 15:43:00,75.4,71.6,29.80,WNW,293,2.0,4.0,88,0.00,,,0.00,Wunderground v.1.15,2013-08-09 19:43:00,
2013-08-09 15:49:00,75.7,71.9,29.80,WNW,282,2.0,5.0,88,0.00,,,0.00,Wunderground v.1.15,2013-08-09 19:49:00,
2013-08-09 15:54:00,75.6,71.8,29.80,West,273,2.0,9.0,88,0.00,,,0.00,Wunderground v.1.15,2013-08-09 19:54:00,
2013-08-09 16:00:00,75.9,72.1,29.80,WSW,254,3.0,3.0,88,0.00,,,0.00,Wunderground v.1.15,2013-08-09 20:00:00,
2013-08-09 16:05:00,76.4,72.2,29.79,West,281,3.0,4.0,87,0.00,,,0.00,Wunderground v.1.15,2013-08-09 20:05:00,
2013-08-09 16:11:00,77.0,72.5,29.79,WNW,290,2.0,3.0,86,0.00,,,0.00,Wunderground v.1.15,2013-08-09 20:11:00,
2013-08-09 16:16:00,77.5,72.3,29.80,West,273,3.0,6.0,84,0.00,,,0.00,Wunderground v.1.15,2013-08-09 20:16:00,
2013-08-09 16:22:00,77.0,71.8,29.79,NW,317,3.0,4.0,84,0.00,,,0.00,Wunderground v.1.15,2013-08-09 20:22:00,
2013-08-09 16:27:00,76.9,72.0,29.79,WNW,289,3.0,6.0,85,0.00,,,0.00,Wunderground v.1.15,2013-08-09 20:27:00,
2013-08-09 16:33:00,77.1,71.9,29.79,WSW,257,3.0,5.0,84,0.00,,,0.00,Wunderground v.1.15,2013-08-09 20:33:00,
2013-08-09 16:39:00,76.8,71.6,29.79,WNW,282,4.0,8.0,84,0.00,,,0.00,Wunderground v.1.15,2013-08-09 20:39:00,
2013-08-09 16:44:00,77.4,72.2,29.80,West,275,4.0,5.0,84,0.00,,,0.00,Wunderground v.1.15,2013-08-09 20:44:00,
2013-08-09 16:49:00,76.9,71.7,29.80,NW,315,3.0,5.0,84,0.00,,,0.00,Wunderground v.1.15,2013-08-09 20:49:00,
2013-08-09 16:55:00,76.3,71.1,29.80,West,271,3.0,4.0,84,0.00,,,0.00,Wunderground v.1.15,2013-08-09 20:55:00,
2013-08-09 17:01:00,76.0,70.8,29.80,WNW,282,3.0,3.0,84,0.00,,,0.00,Wunderground v.1.15,2013-08-09 21:01:00,
2013-08-09 17:06:00,76.0,71.2,29.80,West,269,2.0,5.0,85,0.00,,,0.00,Wunderground v.1.15,2013-08-09 21:06:00,
2013-08-09 17:11:00,75.7,70.2,29.80,West,267,5.0,5.0,83,0.00,,,0.00,Wunderground v.1.15,2013-08-09 21:11:00,
2013-08-09 17:17:00,75.3,69.8,29.80,WNW,285,6.0,15.0,83,0.00,,,0.00,Wunderground v.1.15,2013-08-09 21:17:00,
2013-08-09 17:23:00,75.1,69.6,29.80,WNW,283,5.0,6.0,83,0.00,,,0.00,Wunderground v.1.15,2013-08-09 21:23:00,
2013-08-09 17:28:00,75.3,69.8,29.81,NW,315,4.0,10.0,83,0.00,,,0.00,Wunderground v.1.15,2013-08-09 21:28:00,
2013-08-09 17:34:00,75.3,69.4,29.81,WNW,289,4.0,9.0,82,0.00,,,0.00,Wunderground v.1.15,2013-08-09 21:34:00,
2013-08-09 17:39:00,75.4,69.9,29.80,West,277,4.0,9.0,83,0.00,,,0.00,Wunderground v.1.15,2013-08-09 21:39:00,
2013-08-09 17:45:00,76.3,70.0,29.81,West,277,3.0,6.0,81,0.00,,,0.00,Wunderground v.1.15,2013-08-09 21:45:00,
2013-08-09 17:51:00,76.0,69.7,29.81,West,267,4.0,7.0,81,0.00,,,0.00,Wunderground v.1.15,2013-08-09 21:51:00,
2013-08-09 17:56:00,75.5,70.0,29.81,WNW,292,4.0,7.0,83,0.00,,,0.00,Wunderground v.1.15,2013-08-09 21:56:00,
2013-08-09 18:01:00,75.1,69.6,29.81,West,271,4.0,4.0,83,0.00,,,0.00,Wunderground v.1.15,2013-08-09 22:01:00,
2013-08-09 18:06:00,74.9,69.7,29.81,West,279,3.0,5.0,84,0.00,,,0.00,Wunderground v.1.15,2013-08-09 22:06:00,
2013-08-09 18:12:00,74.9,70.1,29.81,West,267,3.0,5.0,85,0.00,,,0.00,Wunderground v.1.15,2013-08-09 22:12:00,
2013-08-09 18:18:00,74.8,70.0,29.81,West,267,3.0,7.0,85,0.00,,,0.00,Wunderground v.1.15,2013-08-09 22:18:00,
2013-08-09 18:24:00,74.9,70.4,29.80,West,267,3.0,5.0,86,0.00,,,0.00,Wunderground v.1.15,2013-08-09 22:24:00,
2013-08-09 18:29:00,75.3,70.1,29.80,WNW,288,3.0,5.0,84,0.00,,,0.00,Wunderground v.1.15,2013-08-09 22:29:00,
2013-08-09 18:34:00,75.3,70.1,29.80,WNW,300,4.0,6.0,84,0.00,,,0.00,Wunderground v.1.15,2013-08-09 22:34:00,
2013-08-09 18:40:00,75.3,70.1,29.80,NW,313,4.0,6.0,84,0.00,,,0.00,Wunderground v.1.15,2013-08-09 22:40:00,
2013-08-09 18:46:00,75.4,70.2,29.81,WNW,288,2.0,6.0,84,0.00,,,0.00,Wunderground v.1.15,2013-08-09 22:46:00,
2013-08-09 18:51:00,75.2,70.0,29.81,WNW,301,3.0,5.0,84,0.00,,,0.00,Wunderground v.1.15,2013-08-09 22:51:00,
2013-08-09 18:57:00,74.7,69.9,29.81,WNW,302,5.0,9.0,85,0.00,,,0.00,Wunderground v.1.15,2013-08-09 22:57:00,
2013-08-09 19:02:00,74.4,69.6,29.81,NW,311,4.0,8.0,85,0.00,,,0.00,Wunderground v.1.15,2013-08-09 23:02:00,
2013-08-09 19:07:00,73.9,69.4,29.81,WNW,296,5.0,9.0,86,0.00,,,0.00,Wunderground v.1.15,2013-08-09 23:07:00,
2013-08-09 19:13:00,73.4,69.3,29.81,West,273,5.0,11.0,87,0.00,,,0.00,Wunderground v.1.15,2013-08-09 23:13:00,
2013-08-09 19:18:00,73.0,68.9,29.82,WNW,284,5.0,11.0,87,0.00,,,0.00,Wunderground v.1.15,2013-08-09 23:18:00,
2013-08-09 19:24:00,72.7,68.6,29.82,West,275,3.0,5.0,87,0.00,,,0.00,Wunderground v.1.15,2013-08-09 23:24:00,
2013-08-09 19:29:00,72.5,68.4,29.82,West,281,2.0,5.0,87,0.00,,,0.00,Wunderground v.1.15,2013-08-09 23:29:00,
2013-08-09 19:35:00,72.2,68.1,29.82,WNW,289,3.0,6.0,87,0.00,,,0.00,Wunderground v.1.15,2013-08-09 23:35:00,
2013-08-09 19:40:00,72.0,67.9,29.82,WNW,288,4.0,4.0,87,0.00,,,0.00,Wunderground v.1.15,2013-08-09 23:40:00,
2013-08-09 19:45:00,71.9,67.8,29.82,West,263,3.0,7.0,87,0.00,,,0.00,Wunderground v.1.15,2013-08-09 23:45:00,
2013-08-09 19:51:00,71.8,67.7,29.83,West,279,4.0,5.0,87,0.00,,,0.00,Wunderground v.1.15,2013-08-09 23:51:00,
2013-08-09 19:57:00,71.7,68.0,29.83,West,269,3.0,5.0,88,0.00,,,0.00,Wunderground v.1.15,2013-08-09 23:57:00,
2013-08-09 20:03:00,71.6,67.9,29.83,West,274,2.0,3.0,88,0.00,,,0.00,Wunderground v.1.15,2013-08-10 00:03:00,
2013-08-09 20:09:00,71.3,67.6,29.83,WNW,290,2.0,7.0,88,0.00,,,0.00,Wunderground v.1.15,2013-08-10 00:09:00,
2013-08-09 20:14:00,71.1,67.7,29.84,WNW,298,3.0,9.0,89,0.00,,,0.01,Wunderground v.1.15,2013-08-10 00:14:00,
2013-08-09 20:20:00,70.9,67.5,29.84,West,263,2.0,3.0,89,0.00,,,0.01,Wunderground v.1.15,2013-08-10 00:20:00,
2013-08-09 20:26:00,70.7,67.3,29.84,West,280,3.0,6.0,89,0.00,,,0.01,Wunderground v.1.15,2013-08-10 00:26:00,
2013-08-09 20:32:00,70.4,67.0,29.85,West,275,3.0,5.0,89,0.00,,,0.01,Wunderground v.1.15,2013-08-10 00:32:00,
2013-08-09 20:37:00,70.3,66.9,29.85,West,275,2.0,5.0,89,0.00,,,0.01,Wunderground v.1.15,2013-08-10 00:37:00,
2013-08-09 20:43:00,70.3,66.9,29.85,West,261,2.0,3.0,89,0.00,,,0.01,Wunderground v.1.15,2013-08-10 00:43:00,
2013-08-09 20:48:00,70.2,66.8,29.85,West,278,2.0,6.0,89,0.00,,,0.01,Wunderground v.1.15,2013-08-10 00:48:00,
2013-08-09 20:53:00,70.1,66.7,29.85,West,267,2.0,5.0,89,0.00,,,0.01,Wunderground v.1.15,2013-08-10 00:53:00,
2013-08-09 20:58:00,69.9,66.5,29.86,West,264,2.0,5.0,89,0.00,,,0.01,Wunderground v.1.15,2013-08-10 00:58:00,
2013-08-09 21:04:00,69.6,66.2,29.86,West,279,1.0,3.0,89,0.00,,,0.01,Wunderground v.1.15,2013-08-10 01:04:00,
2013-08-09 21:09:00,69.4,66.0,29.86,West,275,1.0,4.0,89,0.00,,,0.01,Wunderground v.1.15,2013-08-10 01:09:00,
2013-08-09 21:15:00,69.2,65.8,29.86,West,269,1.0,3.0,89,0.00,,,0.01,Wunderground v.1.15,2013-08-10 01:15:00,
2013-08-09 21:21:00,69.0,65.6,29.86,West,269,1.0,1.0,89,0.00,,,0.01,Wunderground v.1.15,2013-08-10 01:21:00,
2013-08-09 21:26:00,68.9,65.5,29.87,West,269,0.0,1.0,89,0.00,,,0.01,Wunderground v.1.15,2013-08-10 01:26:00,
2013-08-09 21:32:00,68.7,65.3,29.87,West,269,0.0,2.0,89,0.00,,,0.01,Wunderground v.1.15,2013-08-10 01:32:00,
2013-08-09 21:38:00,68.5,65.1,29.87,West,269,0.0,2.0,89,0.00,,,0.01,Wunderground v.1.15,2013-08-10 01:38:00,
2013-08-09 21:43:00,68.3,64.9,29.87,West,269,0.0,1.0,89,0.00,,,0.01,Wunderground v.1.15,2013-08-10 01:43:00,
2013-08-09 21:49:00,68.2,64.8,29.87,West,269,0.0,1.0,89,0.00,,,0.01,Wunderground v.1.15,2013-08-10 01:49:00,
2013-08-09 21:55:00,67.9,64.5,29.87,West,269,0.0,0.0,89,0.00,,,0.01,Wunderground v.1.15,2013-08-10 01:55:00,
2013-08-09 22:01:00,67.7,64.3,29.87,West,269,0.0,1.0,89,0.00,,,0.01,Wunderground v.1.15,2013-08-10 02:01:00,
2013-08-09 22:06:00,67.5,64.1,29.87,West,269,0.0,1.0,89,0.00,,,0.01,Wunderground v.1.15,2013-08-10 02:06:00,
2013-08-09 22:12:00,67.3,63.9,29.87,West,269,0.0,0.0,89,0.00,,,0.01,Wunderground v.1.15,2013-08-10 02:12:00,
2013-08-09 22:17:00,67.2,63.8,29.87,West,269,0.0,0.0,89,0.00,,,0.01,Wunderground v.1.15,2013-08-10 02:17:00,
2013-08-09 22:23:00,67.0,63.6,29.87,West,269,0.0,1.0,89,0.00,,,0.01,Wunderground v.1.15,2013-08-10 02:23:00,
2013-08-09 22:28:00,66.8,63.5,29.87,West,269,0.0,1.0,89,0.00,,,0.01,Wunderground v.1.15,2013-08-10 02:28:00,
2013-08-09 22:33:00,66.7,63.4,29.87,West,269,0.0,0.0,89,0.00,,,0.01,Wunderground v.1.15,2013-08-10 02:33:00,
2013-08-09 22:39:00,66.5,62.8,29.87,West,269,0.0,0.0,88,0.00,,,0.01,Wunderground v.1.15,2013-08-10 02:39:00,
2013-08-09 22:44:00,66.3,62.6,29.87,West,269,0.0,0.0,88,0.00,,,0.01,Wunderground v.1.15,2013-08-10 02:44:00,
2013-08-09 22:49:00,66.2,62.5,29.87,West,269,0.0,0.0,88,0.00,,,0.01,Wunderground v.1.15,2013-08-10 02:49:00,
2013-08-09 22:55:00,65.9,62.6,29.87,West,269,0.0,1.0,89,0.00,,,0.01,Wunderground v.1.15,2013-08-10 02:55:00,
2013-08-09 23:01:00,65.7,62.0,29.87,West,269,0.0,0.0,88,0.00,,,0.01,Wunderground v.1.15,2013-08-10 03:01:00,
2013-08-09 23:07:00,65.4,61.8,29.87,West,269,0.0,0.0,88,0.00,,,0.01,Wunderground v.1.15,2013-08-10 03:07:00,
2013-08-09 23:12:00,65.2,61.6,29.88,West,269,0.0,0.0,88,0.00,,,0.01,Wunderground v.1.15,2013-08-10 03:12:00,
2013-08-09 23:18:00,65.1,61.5,29.87,West,269,0.0,0.0,88,0.00,,,0.01,Wunderground v.1.15,2013-08-10 03:18:00,
2013-08-09 23:23:00,65.2,61.2,29.87,West,269,0.0,0.0,87,0.00,,,0.01,Wunderground v.1.15,2013-08-10 03:23:00,
2013-08-09 23:28:00,65.3,61.3,29.87,West,269,0.0,1.0,87,0.00,,,0.01,Wunderground v.1.15,2013-08-10 03:28:00,
2013-08-09 23:33:00,65.2,61.2,29.87,West,269,0.0,0.0,87,0.00,,,0.01,Wunderground v.1.15,2013-08-10 03:33:00,
2013-08-09 23:39:00,65.2,61.2,29.88,West,269,0.0,1.0,87,0.00,,,0.01,Wunderground v.1.15,2013-08-10 03:39:00,
2013-08-09 23:44:00,65.2,61.2,29.88,West,269,0.0,1.0,87,0.00,,,0.01,Wunderground v.1.15,2013-08-10 03:44:00,
2013-08-09 23:50:00,65.0,61.0,29.88,West,269,0.0,1.0,87,0.00,,,0.01,Wunderground v.1.15,2013-08-10 03:50:00,
2013-08-09 23:56:00,65.0,61.0,29.88,West,269,1.0,1.0,87,0.00,,,0.01,Wunderground v.1.15,2013-08-10 03:56:00,